Weather History for Pine Ridge, SD

Change the Weather History Date:

Saturday, March 24, 2012

  Actual Average Record
Temperature  
Mean Temperature 48 °F 39 °F  
Max Temperature 65 °F 53 °F 77 °F (1998)
Min Temperature 30 °F 25 °F 7 °F (2013)
Degree Days  
Heating Degree Days 17 26  
Month to date heating degree days 458 715  
Since 1 July heating degree days 5522 6065  
Cooling Degree Days 0 0  
Month to date cooling degree days 0 0  
Year to date cooling degree days 0 0  
Moisture  
Dew Point 34 °F    
Average Humidity 55    
Maximum Humidity 82    
Minimum Humidity 28    
Precipitation  
Precipitation 0.00 in 0.04 in 0.14 in (2009)
Month to date precipitation T 0.60  
Year to date precipitation 1.37 1.39  
Sea Level Pressure  
Sea Level Pressure 30.05 in    
Wind  
Wind Speed 10 mph (NNE)    
Max Wind Speed 7 mph    
Max Gust Speed 7 mph    
Visibility 10 miles    
Events      
T = Trace of Precipitation, MM = Missing Value Source: NWS Daily Summary

Daily Weather History Graph

Daily Weather History Graph

Search for Another Location

Airport:

Trip Planner

Search our weather history database for the weather conditions in past years. The results will help you decide how hot, cold, wet, or windy it might be!

Date:

Astronomy

Mar. 24, 2012 Rise Set
Actual Time 6:45 AM MDT 7:07 PM MDT
Civil Twilight 6:16 AM MDT 7:36 PM MDT
Nautical Twilight 5:43 AM MDT 8:09 PM MDT
Astronomical Twilight 5:09 AM MDT 8:44 PM MDT
Moon 7:21 AM MDT (3/24) 9:34 PM MDT (3/24)
Length of Visible Light 13h 19m
Length of Day
12h 22m
Waxing Crescent, 4% of the Moon is Illuminated
Mar 24
Waxing Crescent
Mar 30
First Quarter
Apr 6
Full
Apr 13
Last Quarter
Apr 21
New

Hourly Weather History & Observations

Time (MDT) Temp. Windchill Dew Point Humidity Pressure Visibility Wind Dir Wind Speed Gust Speed Precip Events Conditions
12:52 AM 57.0 °F - 44.1 °F 62% 29.84 in 10.0 mi SSW 12.7 mph - N/A   Clear
1:52 AM 55.0 °F - 44.1 °F 67% 29.83 in 10.0 mi SSW 12.7 mph - N/A   Clear
2:52 AM 52.0 °F - 43.0 °F 71% 29.85 in 10.0 mi South 10.4 mph - N/A   Clear
3:52 AM 53.1 °F - 39.9 °F 61% 29.84 in 10.0 mi SSW 6.9 mph - N/A   Clear
4:52 AM 46.0 °F 43.9 °F 39.9 °F 79% 29.90 in 10.0 mi NNW 4.6 mph - N/A   Clear
5:52 AM 46.0 °F 42.5 °F 35.1 °F 66% 29.99 in 10.0 mi North 6.9 mph - N/A   Clear
6:52 AM 42.1 °F 38.4 °F 33.1 °F 70% 30.04 in 10.0 mi NNW 5.8 mph - N/A   Clear
7:52 AM 44.1 °F 42.5 °F 35.1 °F 71% 30.10 in 10.0 mi NW 3.5 mph - N/A   Clear
8:52 AM 48.0 °F - 34.0 °F 58% 30.10 in 10.0 mi North 15.0 mph 23.0 mph N/A   Clear
9:52 AM 52.0 °F - 32.0 °F 47% 30.12 in 10.0 mi North 19.6 mph 25.3 mph N/A   Clear
10:52 AM 55.0 °F - 33.1 °F 43% 30.11 in 10.0 mi North 11.5 mph 19.6 mph N/A   Clear
11:52 AM 57.9 °F - 30.9 °F 36% 30.10 in 10.0 mi North 15.0 mph - N/A   Clear
12:52 PM 59.0 °F - 30.9 °F 35% 30.09 in 10.0 mi North 12.7 mph 17.3 mph N/A   Clear
1:52 PM 63.0 °F - 30.9 °F 30% 30.07 in 10.0 mi NE 15.0 mph 21.9 mph N/A   Clear
2:52 PM 63.0 °F - 30.0 °F 29% 30.07 in 10.0 mi ENE 12.7 mph 19.6 mph N/A   Clear
4:52 PM 62.1 °F - 30.0 °F 30% 30.09 in 10.0 mi NE 16.1 mph 23.0 mph N/A   Clear
5:52 PM 60.1 °F - 30.0 °F 32% 30.11 in 10.0 mi ENE 13.8 mph - N/A   Clear
6:52 PM 55.0 °F - 32.0 °F 42% 30.13 in 10.0 mi NE 6.9 mph - N/A   Clear
7:52 PM 46.9 °F - 30.9 °F 54% 30.14 in 10.0 mi East 4.6 mph - N/A   Clear
8:52 PM 41.0 °F 37.1 °F 30.0 °F 65% 30.17 in 10.0 mi ENE 5.8 mph - N/A   Clear
9:52 PM 39.0 °F 34.8 °F 30.0 °F 70% 30.17 in 10.0 mi ENE 5.8 mph - N/A   Clear
10:52 PM 37.0 °F 34.5 °F 30.0 °F 76% 30.18 in 10.0 mi ENE 3.5 mph - N/A   Clear
11:52 PM 34.0 °F 28.8 °F 28.9 °F 82% 30.18 in 10.0 mi ENE 5.8 mph - N/A   Clear